Regional Weather Roundup
Issued by NWS

Home | Current Version | Previous Version | Graphics & Text | Print | Product List | Glossary On
Versions: 1 2 3 4 5 6 7 8 9 10 11 12 13 14 15 16 17 18 19 20 21 22 23 24 25 26 27 28 29 30 31 32 33 34 35 36 37 38 39 40 41 42 43 44 45 46 47 48 49 50
000
ASUS44 KMEG 041010
RWRTN
TENNESSEE HOURLY STATE WEATHER ROUNDUP
NATIONAL WEATHER SERVICE MEMPHIS TN
500 AM CDT WED MAY 04 2016

TNZ002-004-019-021-049-052-054-088>092-041100-
WEST TENNESSEE

CITY           SKY/WX    TMP DP  RH WIND       PRES   REMARKS
MEMPHIS INTL   PTCLDY    52  48  86 SW5       29.91F
NWS MEMPHIS      N/A     49 N/A N/A MISG        N/A
JACKSON        CLEAR     50  47  89 SW6       29.89F
DYERSBURG      PTCLDY    48  46  93 SW3       29.87F
UNION CITY     CLEAR     48  48 100 SW3       29.85F
LEXINGTON      CLEAR     45  43  93 CALM      29.87F
$$

TNZ008-025-027-028-033-062-065-066-041100-
NORTH MIDDLE TENNESSEE

CITY           SKY/WX    TMP DP  RH WIND       PRES   REMARKS
NASHVILLE      PTCLDY    48  44  86 CALM      29.86F
CLARKSVILLE    PTCLDY    47  44  90 SW5       29.85F
SMYRNA         CLEAR     49  47  93 W8        29.87F
COOKEVILLE       N/A     41  41 100 CALM      29.84S VSB 1/4
CROSSVILLE     CLEAR     44  42  93 CALM      29.85F
$$

TNZ061-075-076-078-094-096-097-041100-
SOUTH MIDDLE TENNESSEE

CITY           SKY/WX    TMP DP  RH WIND       PRES   REMARKS
FAYETTEVILLE   CLEAR     46  46 100 CALM      29.88S
TULLAHOMA      CLEAR     45  45 100 SW3       29.88S
WINCHESTER     CLEAR     45  43  93 CALM      29.88F
MCMINNVILLE    CLEAR     45  45 100 CALM      29.86S
COLUMBIA       CLEAR    N/A N/A N/A CALM      29.86F
SHELBYVILLE    CLEAR     45  45 100 S3        29.88S
$$

TNZ017-018-042-046-047-041100-
NORTHEAST TENNESSEE

CITY           SKY/WX    TMP DP  RH WIND       PRES   REMARKS
TRI CITIES     CLOUDY    54  45  71 W7        29.79S
$$

TNZ012-013-036-069-073-074-041100-
CENTRAL EAST TENNESSEE

CITY           SKY/WX    TMP DP  RH WIND       PRES   REMARKS
KNOXVILLE      PTCLDY    53  45  74 W6        29.82S
OAK RIDGE      CLEAR     51  46  83 CALM      29.85S
GATLINBURG     CLOUDY    54  46  76 CALM      29.82S
MORRISTOWN     MOSUNNY   54  46  76 NW6       29.81S
$$

TNZ083-085-099-041100-
SOUTHEAST TENNESSEE

CITY           SKY/WX    TMP DP  RH WIND       PRES   REMARKS
CHATTANOOGA    CLEAR     54  45  71 W7        29.86S
$$

SKY/WX REPORTED AS FAIR MEANS FEW OR NO CLOUDS BELOW
12 THOUSAND FEET.




USA.gov is the U.S. government's official web portal to all federal, state and local government web resources and services.